sat.trackr.live / text

‹ back to catalog

STARLINK-4013

NORAD 52604 · 2022-052G

PAYLOAD ACTIVE UNKNOWN

§ Identity

Operator
Country
US
Launch date
2022-05-14
Launch site
AFETR
Launch vehicle
Mass (kg)
RCS (m²)

Purposes: comms

External: N2YO · Heavens-Above · Gunter

§ Orbital elements

Epoch: 2026-09-20T03:15:24.130944Z

Period
93.79 min
Inclination
53.1614°
Eccentricity
0.0001189
Mean motion
15.35399358 rev/d
Perigee alt
458.9 km
Apogee alt
460.5 km
Semi-major
6,837.9 km
B*
1.2533e-5
RAAN
117.1364°
Arg perigee
90.8051°
Mean anomaly
269.3088°
Rev number
24,033

§ Raw data

STARLINK-40131 52604U 22052G   26263.13569596  .00000057  00000+0  12533-4 0  99902 52604  53.1614 117.1364 0001189  90.8051 269.3088 15.35399358240333

JSON: /api/v1/satellites/52604 · /tle

For live sub-satellite position, see the globe view (requires WebGL).

§ Visibility from observer

Set your observer location to see the next 7 days of passes ≥ 10°. The values pass through the URL so the page stays shareable.

No JS? Fill the form by hand. The geolocation button needs JavaScript.